Simultaneous Nadir Overpasses (SNOs) Predictions

Prediction of SNOs between AQUA and NPP Satellite Orbit:

Table of predicted SNOs for the next 14.0 days since TLE Epoch: 3/23/2024
Index Date (AQUA) Time (AQUA) Lat,Lon (AQUA) SZA (AQUA ) Date (NPP) Time (NPP) Lat,Lon (NPP) SZA (NPP ) Distance(km) Time Diff (sec)
1 03/24/2024 19:07:51 -81.17, -6.23 93.24 03/24/2024 19:07:10 -81.18, -6.29 93.21 1.02 41
2 03/24/2024 19:57:12 81.20, 161.82 86.70 03/24/2024 19:57:53 81.20, 161.78 86.68 0.68 41
3 03/27/2024 08:01:48 -81.18, 160.36 94.27 03/27/2024 08:01:07 -81.18, 160.42 94.25 1.05 41
4 03/27/2024 08:51:09 81.20, -31.63 85.68 03/27/2024 08:51:50 81.20, -31.54 85.64 1.57 41
5 03/29/2024 20:55:43 -81.18, -32.98 95.29 03/29/2024 20:55:04 -81.18, -32.95 95.27 0.53 39
6 03/29/2024 21:45:04 81.20, 135.00 84.65 03/29/2024 21:45:47 81.20, 135.07 84.62 1.21 43
7 04/01/2024 09:49:35 -81.19, 133.76 96.32 04/01/2024 09:49:00 -81.19, 133.62 96.28 2.49 35
8 04/01/2024 10:38:56 81.21, -58.29 83.63 04/01/2024 10:39:43 81.20, -58.39 83.61 1.74 47
9 04/03/2024 22:43:27 -81.18, -59.81 97.30 04/03/2024 22:42:57 -81.19, -59.89 97.26 1.39 30



Historial Predications of SNOs between AQUA and NPP
